Погода в Дубовике

Россия / Орловская область     52°25′23″N   36°37′56″E
темп.,
°C
ветер,
м/с
пор.,
м/с
влажн.,
%
обл.,
%
осадки,
мм/ч
давл.,
гПа
погр.,
м
18 мая, вт
вт1800:00+16юв4108838 0.0 1006170
03:00+15юв36935 0.0 1006107
06:00+16вюв369198 0.0 1005143
09:00+20вюв6126966 0.0 1005509
12:00+23юв7115424 0.0 10051061
15:00+23вюв6115899 0.0 10031472
18:00+18ю71185100 0.0 1004692
21:00+15ююв389597 1.6 1005348
19 мая, ср
ср1900:00+14юв4995100 0.2 1004346
03:00+14юв4997100 0.3 1005316
06:00+13юв5109611 0.0 1006373
09:00+17ююв6879100 0.0 1006851
12:00+19юв6768100 0.4 10061283
15:00+17ююв4580100 2.4 1006478
18:00+15ю3590100 2.8 1005173
21:00+14в2496100 8.9 1005136
20 мая, чт
чт2000:00+12в499881 0.3 1003316
03:00+12юв4898100 0.4 1001503
06:00+11ююв71197100 0.3 1003662
09:00+11ююв61097100 4.3 1004481
12:00+12ююз5995100 1.4 1006559
15:00+15ююз578252 1.8 1007908
18:00+13юз689167 1.4 1009597
21:00+12юз4897100 1.6 1010401
21 мая, пт
пт2100:00+11з479597 0.1 1011405
03:00+7з389821 0.1 1013201
06:00+8зсз41094100 0.0 1014358
09:00+12зсз468035 0.0 1015673
12:00+16сз446667 0.0 10151191
15:00+16ссз3366100 0.1 10161219
18:00+14св4578100 0.0 1016343
21:00+13всв3380100 0.0 101769
22 мая, сб
сб2200:00+12всв2486100 0.4 101790
03:00+11всв3786100 0.4 1017170
06:00+10всв51097100 5.8 1017383
09:00+11всв51096100 12.7 1017402
12:00+12всв61294100 1.7 1017372
15:00+15всв6118684 1.7 1016548
18:00+14св51188100 0.0 1015492
21:00+13всв51290100 0.0 1014384